Location: Lecco
(45.8566°N, 9.3977°E)
Time: 20:30:43
(UTC+02:00)

ISS - Pass Details

Date: 19 July 2018
Orbit: 402 x 408 km, 51.6° (Epoch: 17 July)

Event Time Altitude Azimuth Distance (km) Brightness Sun altitude
Rises 04:42:25 0° 297° (WNW) 2,332 -0.2 -10.2°
Reaches altitude 10° 04:44:30 10° 296° (WNW) 1,470 -1.2 -9.9°
Maximum altitude 04:47:47 75° 211° (SSW) 425 -3.9 -9.5°
Drops below altitude 10° 04:51:04 10° 126° (SE) 1,464 -0.9 -9.1°
Sets 04:53:09 0° 124° (SE) 2,322 0.2 -8.8°
